Lid_Strength_Index
4 3 2 2 2 2 2 1 1 1 1 1 2 2 3 2 1 0 0 0 0 0 1 2 1 1 1 1 2 1 1 1 1 2 2 2 1 1 1 -0 0 0 -0
4 3 3 2 2 2 2 2 1 1 1 1 1 1 1 1 0 0 0 -0 0 0 0 1 1 1 1 1 1 1 2 2 1 3 3 5 3 2 1 1 0 0 0
5 4 3 3 2 2 2 2 1 1 1 1 1 1 1 1 1 1 1 0 0 -0 0 0 0 1 1 1 2 1 2 4 2 2 3 5 6 4 4 2 1 1 1
4 4 3 3 3 2 2 1 1 1 1 1 1 2 2 3 2 1 1 0 0 1 -0 0 0 0 0 1 1 0 1 2 3 2 1 2 2 5 6 3 2 1 1
4 4 3 3 2 2 2 1 1 1 1 1 1 2 2 2 1 1 1 1 2 3 1 0 0 1 0 1 1 1 1 1 2 2 2 3 3 3 4 6 4 2 1
4 4 3 3 3 2 2 2 2 2 1 1 1 2 2 2 2 2 2 1 2 2 0 0 0 0 1 1 1 1 1 1 1 2 2 2 3 4 4 5 4 4 2
4 4 4 3 3 3 2 2 2 2 1 1 1 1 1 2 2 2 2 2 2 1 1 0 0 0 0 0 0 1 1 1 1 1 2 1 2 1 3 3 4 4 3
4 4 4 3 3 3 2 2 2 2 2 1 1 1 1 1 1 1 1 1 1 1 0 0 1 0 0 0 0 1 1 1 1 1 1 1 2 1 1 3 4 5 4
4 4 4 3 3 3 3 2 2 2 2 1 1 1 1 1 1 1 1 1 1 0 0 1 0 1 1 0 0 1 1 1 1 1 1 1 1 1 1 2 3 4 6
4 4 4 3 3 2 2 2 2 2 2 1 1 1 1 1 1 1 1 1 1 1 1 1 2 2 0 0 1 1 1 1 1 1 1 1 1 1 2 1 3 2 3
5 4 4 3 3 2 2 2 2 2 2 2 1 1 1 1 1 1 1 1 1 1 1 1 2 1 1 1 1 1 1 1 1 1 1 1 1 1 2 2 1 2 3
4 4 4 3 3 3 3 3 2 2 2 1 1 1 1 1 1 2 1 1 1 1 1 1 1 1 1 1 1 1 1 1 2 1 1 1 1 1 1 1 2 2 2
5 4 4 4 3 3 3 3 2 2 2 2 2 1 1 1 1 1 1 1 1 1 1 1 1 1 1 1 1 1 1 1 1 1 2 1 1 2 2 2 2 2 1
5 5 5 4 4 3 3 3 2 2 2 2 2 2 2 1 1 1 1 1 1 1 1 1 1 1 1 1 1 1 1 1 1 1 1 1 1 1 1 2 2 2 2
5 5 5 5 4 4 3 3 2 2 2 2 2 2 2 1 1 1 1 1 1 1 1 1 1 1 1 1 1 1 1 1 1 1 1 1 1 1 1 1 1 2 2
5 5 4 4 4 4 3 3 3 2 2 2 2 2 2 1 1 1 1 1 1 1 1 1 1 1 1 2 3 2 1 1 1 2 1 1 1 1 1 2 1 1 2
5 5 4 4 4 3 3 3 3 2 2 2 2 2 2 2 2 1 1 2 2 1 1 1 1 1 1 3 4 4 3 1 1 1 1 1 1 2 1 2 3 3 3
5 4 4 4 3 3 3 2 2 2 2 3 2 2 2 2 2 2 2 2 2 2 2 2 2 2 1 4 5 5 4 3 2 1 1 1 1 1 1 1 2 2 2
5 5 3 3 3 3 2 2 3 2 3 3 3 2 2 2 2 2 2 2 2 3 2 2 2 2 1 4 6 6 4 4 2 1 1 1 1 2 3 2 2 2 1
4 4 3 3 3 3 2 3 3 3 3 3 2 2 2 2 3 4 3 3 3 3 2 3 3 3 2 3 5 6 3 2 2 2 1 3 2 4 4 3 2 3 2
3 3 3 3 3 2 2 3 3 3 2 2 3 3 3 3 3 4 4 3 3 2 2 2 2 2 2 1 4 6 3 2 2 2 2 1 5 7 7 6 2 2 1
4 3 5 3 3 2 3 3 4 3 3 4 4 4 5 4 3 3 2 2 2 3 2 2 2 2 2 3 4 6 7 4 2 2 2 3 9 9 9 8 5 5 5
4 3 3 4 3 3 3 4 4 4 3 4 5 5 3 2 2 2 3 2 2 3 3 3 3 2 1 2 4 7 6 7 6 3 6 8 8 9 7 9 8 7 4
4 3 4 4 4 4 4 4 4 3 4 4 2 2 2 3 2 2 2 3 4 4 4 4 5 5 4 4 5 6 5 4 5 4 4 5 6 6 4 5 7 5 3
4 4 4 4 4 3 4 4 3 2 2 2 2 3 3 2 2 5 4 4 5 6 5 6 6 6 6 5 8 9 8 5 6 7 2 3 3 3 3 3 3 4 3
4 4 4 4 3 4 4 3 2 2 2 3 3 2 2 2 2 5 6 9 8 9 9 9 8 6 8 10 11 12 13 13 12 6 4 3 3 4 4 3 3 3 3